map of VTE home
VTE - Airport
Location
City:  Vientiane, Lao People's Democratic Republic (Laos)
Name:Wattay International Airport
ICAO:VLVT
IATA:VTE

Details
Type:Airport (Aerodrome, Airfield)
Use:Public/Civil, Military, International (customs port of entry)
Latitude:1759'18"N (17.988322)
Longitude:10233'48"E (102.563256)
Datum:WGS 1984
Elevation:564 ft (172 m)
Variation:0.90W (WMM2015 magnetic declination)
-0.01 annual change
Runways:1
Longest:9843 × 148 ft (3000 × 45 m), paved

Time
Time Zone:UTC+7
Local Time:

Weather
METAR:VLVT 181230Z 16006KT 6000 SCT016 BKN083 28/25 Q1001 NOSIG
TAF:VLVT 181100Z 1812/1912 30004KT 8000 SCT016 BKN083
TEMPO 1814/1820 4000 BR SCT040 BKN83

Related Locations
Nearby:
Farthest:SJA: 12200 mi / 19634 km
San Juan de Marcona [San Juan de Marcona Airport], ICA, PE

Find:

   beyond  
but within

Other Information
Maps:
NOTAMs:
Links:
Sources:

  
  • flag of Lao People's Democratic Republic (Laos)
  

Sectional Chart

Flight Planning
at skyvector.com

Satellite Image

Google Maps Satellite view

 

Copyright © 2004-2018 Karl L. Swartz. All rights reserved.
The Great Circle Mapper name and logo are trademarks of the Great Circle Mapper.
All other trademarks mentioned herein belong to their respective owners.
Please see credits for attibutions and further copyright information.

  Follow gcmap on Facebook Follow gcmap on Twitter Follow gcmap on Google+ GCmap on LinkedIn

hCard Microformat

Geo Microformat